Preview of NWS' New Version of Forecast
This preview is not operational and should not be used for support decisions.
Latest weather observations around

San Jose, San Jose International Airport (KSJC)

Using International System of Units (Switch to English Units)
Date/ Time (PDT) Wind (kph) Vis. (km) Weather Sky Cond. Temp (°C) Rel. Humidity Wind Chill (°C) Heat Index (°C) Pressure Precip. (cm)
Air Dwpt 6 hour Altimeter (hPa) Sea level (hPa) 1 hr 3 hr 6 hr
Max Min
Mar 24 08:53 SSE 9 16.09 Clear CLR 8        % 7   1023.7 1023.6      
Mar 24 07:53 SSW 5 16.09 Clear CLR 6 0     65% 5   1023.4 1023.4      
Mar 24 06:53 Calm 16.09 Clear CLR 5 -1     67%     1023 1022.9      
Mar 24 05:53 S 5 16.09 Clear CLR 6 0     65% 5   1022.7 1022.5      
Mar 24 04:53 SSW 5 16.09 Clear CLR 6 0     65% 5   1022.7 1022.7      
Mar 24 03:53 S 8 16.09 Clear CLR 7 0     62% 5   1022.7 1022.7      
Mar 24 02:53 SSE 8 16.09 Clear CLR 6        % 5   1023.4 1023.3      
Mar 24 01:53 S 5 16.09 Clear CLR 8        % 7   1023.7 1023.7      
Mar 24 00:53 SSE 5 16.09 Clear CLR 8        % 8   1024.1 1023.9      
Mar 23 23:53 SW 8 16.09 Partly Cloudy FEW012 SCT016 9        % 8   1024.7 1024.5      
Mar 23 22:53 Calm 16.09 Mostly Clear FEW012 10        %     1024.1 1024      
Mar 23 21:53 NW 13 16.09 Mostly Clear FEW013 9        % 7   1024.1 1023.9      
Mar 23 20:53 WNW 17 16.09 Mostly Clear FEW016 11        %     1023.7 1023.6      
Mar 23 19:53 NW 9 16.09 Mostly Clear FEW017 FEW024 12        %     1023.4 1023.1      
Mar 23 18:53 NW 13 16.09 Mostly Clear FEW026 FEW032 FEW055 13        %     1022.7 1022.7      
Mar 23 17:53   16.09 Partly Cloudy FEW032 SCT055 15        %     1022.4 1022.3      
Mar 23 16:53 NNW 30 16.09 Partly Cloudy FEW032 SCT055 16        %     1022.7 1022.4      
Mar 23 15:53   16.09 Partly Cloudy FEW032 SCT055 16        %     1022.4 1022.3      
Mar 23 14:53 N 24 16.09 Partly Cloudy FEW032 SCT055 16        %     1022.7 1022.5      
Mar 23 13:53 NNW 15 16.09 Partly Cloudy FEW032 SCT055 17        %     1022.7 1022.4      
Mar 23 12:53 NNW 15 16.09 Partly Cloudy SCT029 16        %     1022.7 1022.7      
Mar 23 11:53 N 13 16.09 Partly Cloudy SCT030 15        %     1023 1023      
Mar 23 10:53 NNW 15 16.09 Partly Cloudy SCT023 SCT035 13        %     1022.7 1022.7     0
Mar 23 09:53 NNW 18 16.09 Partly Cloudy FEW001 FEW020 SCT035 13        %     1022.7 1022.5      
Mar 23 08:53 WNW 18 16.09 Clear   12        %     1022.4 1022.1      
Mar 23 07:53 WNW 5 16.09 Cloudy FEW001 BKN036 OVC050 11        %     1021.7 1021.4   0  
Mar 23 06:53 Calm 16.09 Cloudy SCT050 OVC090 11        %     1020.7 1020.7      
Mar 23 05:53 SE 9 16.09 Cloudy SCT060 OVC080 11        %     1020.3 1020.1 0    
Mar 23 04:53 ESE 8 12.87 Light Rain FEW005 OVC065 12        %     1020.7 1020.4 0   1
Mar 23 04:41 ESE 9 9.66 Rain FEW007 SCT048 OVC065 12        %     1020.7   0    
Mar 23 04:12 Calm 8.05 Rain FEW009 BKN019 OVC060 12        %     1020.7   0    
Mar 23 03:53 SE 5 14.48 Light Rain OVC060 12        %     1020.7 1020.5 0    
Mar 23 02:53 SSE 15 11.27 Light Rain FEW029 BKN042 OVC060 12        %     1020.7 1020.6 0    
Mar 23 01:53 S 8 8.05 Rain SCT025 OVC034 12        %     1020.7 1020.5 0 0  
Mar 23 01:50 S 9 9.66 Rain BKN025 BKN031 OVC041 12        %     1020.7   0    
Mar 23 00:53 SE 9 16.09 Light Rain FEW032 BKN048 OVC075 12 8     77%     1020.7 1020.6 0    
Mar 22 23:53 SE 11 16.09 Light Rain FEW010 SCT041 BKN065 13 12     93%     1021 1020.8 0    
Mar 22 22:53 S 13 16.09 Mostly Cloudy FEW012 SCT032 BKN075 13 12     93%     1021 1020.9     0
Mar 22 21:53 SE 15 16.09 Mostly Cloudy FEW012 SCT075 BKN100 13 12     93%     1021 1020.8      
Mar 22 20:53 SE 17 16.09 Mostly Cloudy FEW011 SCT042 BKN070 13 12     93%     1021.3 1021.1 0    
Mar 22 19:53 SSE 11 14.48 Light Rain FEW007 SCT030 BKN042 13 12     93%     1021.3 1021.1 0 0  
Mar 22 18:53 SSE 13 14.48 Light Rain FEW001 BKN030 OVC085 13 12     93%     1021 1020.9 0    
Mar 22 17:53 S 8 9.66 Light Rain and Fog/Mist FEW001 BKN030 OVC085 13 12     93%     1021.3 1021.1 0    
Mar 22 16:53 SSE 9 14.48 Light Rain FEW001 BKN032 OVC085 14 11     83%     1021.3 1021.2 0   0
Mar 22 15:53 SSE 17 14.48 Light Rain FEW001 BKN032 OVC085 14 11     83%     1021.7 1021.5 0    
Mar 22 14:53 SE 22 14.48 Light Rain FEW001 BKN035 OVC085 14 11     81%     1022 1021.8 0    
Mar 22 13:53 SE 17 14.48 Light Rain FEW001 BKN035 OVC085 14 11     81%     1022 1022 0 0  
Mar 22 13:23 SE 15 14.48 Light Rain FEW001 BKN035 OVC085 14 10     75%     1022.4   0    
Mar 22 12:53 SSE 17 16.09 Cloudy FEW027 BKN035 OVC085 14 9     70%     1022.4 1022.3      
Mar 22 11:53 SE 18 16.09 Cloudy FEW027 BKN065 OVC080 13 9     75%     1022.7 1022.5      
Mar 22 10:53 SE 17 16.09 Cloudy FEW014 BKN032 OVC060 12 9     83%     1023 1022.8     0
Mar 22 09:53 SE 17 14.48 Cloudy FEW001 BKN034 OVC060 11 9     86%     1022.7 1022.5 0    
Mar 22 08:53 SSE 15 16.09 Cloudy FEW025 BKN060 OVC080 11 8     86%     1022.4 1022.2 0    
Mar 22 07:53 SSE 17 12.87 Light Rain FEW001 BKN060 OVC080 10 9     93%     1021.7 1021.7 0 0  
Mar 22 06:53 S 13 16.09 Cloudy FEW045 BKN060 OVC080 10 8     89%     1021.3 1021.3 0    
Mar 22 05:53 SSE 11 16.09 Cloudy SCT060 BKN080 OVC100 10 8     86%     1021.3 1021.3      
Mar 22 04:53 SSE 15 16.09 Mostly Cloudy BKN100 9 8     93% 7   1021 1020.9      
Mar 22 03:53 SSE 9 16.09 Cloudy OVC100 8 7     90% 7   1021.3 1021.2      
Mar 22 02:53 S 8 16.09 Clear CLR 8 7     90% 7   1021.7 1021.6      
Mar 22 01:53 SSE 8 16.09 Clear CLR 8 6     86% 7   1021.7 1021.6      
Mar 22 00:53 SW 5 16.09 Clear CLR 9 7     86% 9   1022 1021.9      
Mar 21 23:53 SE 5 16.09 Clear CLR 9 6     80% 9   1021.7 1021.6      
Mar 21 22:53 NW 5 16.09 Clear CLR 12 8     77%     1021.7 1021.6      
Mar 21 21:53 N 8 16.09 Mostly Clear FEW090 13 7     69%     1021.3 1021.1      
Mar 21 20:53 N 8 16.09 Mostly Clear FEW050 FEW090 13 8     72%     1021 1020.8      
Mar 21 19:53 N 17 16.09 Mostly Clear FEW050 FEW090 13 8     72%     1020.3 1020.3      
Mar 21 18:53 NNW 21 16.09 Partly Cloudy FEW036 SCT050 SCT090 14 8     65%     1020.3 1020.1      
Mar 21 17:53   16.09 Partly Cloudy FEW036 FEW050 SCT090 16 7     57%     1019.7 1019.6      
Mar 21 16:53   16.09 Mostly Clear FEW036 FEW050 16 7     56%     1019.3 1019.3      
Mar 21 15:53 NNW 18 16.09 Partly Cloudy FEW036 SCT050 17 7     52%     1019 1019      
Mar 21 14:53 NW 15 16.09 Partly Cloudy FEW036 SCT050 17 6     46%     1019 1019      
Mar 21 13:53 NNW 8 16.09 Partly Cloudy FEW036 SCT050 17 4     44%     1019.7 1019.4      
Mar 21 12:53 NW 9 16.09 Mostly Clear FEW050 16 6     50%     1020 1019.8      
Mar 21 11:53 NW 8 16.09 Mostly Clear FEW036 14 7     60%     1020 1019.9      
Mar 21 10:53 Calm 16.09 Mostly Clear FEW013 FEW034 13 8     69%     1020.3 1020.2      
Mar 21 09:53 Calm 16.09 Mostly Clear FEW026 12 7     74%     1020.3 1020.3      
Mar 21 08:53 S 8 16.09 Mostly Clear FEW028 9 6     80% 8   1020.3 1020.1      
May 15 09:53 Calm 16.09 Cloudy FEW021 BKN028 OVC035 16 8     62%     1017.6 1017.5      
May 14 23:53 WNW 18 16.09 Mostly Cloudy FEW010 SCT024 BKN045 13 9     77%     1016.3 1016.2      
May 14 15:53 WNW 21 16.09 Mostly Clear FEW025 FEW032 19 11     57%     1014.6 1014.4      
May 14 08:53 Calm 16.09 Cloudy FEW012 BKN019 OVC024 15 9     69%     1015.9 1015.9      
May 13 19:31 NW 22 16.09 Mostly Clear FEW008 17 10     63%     1014.9        
May 13 02:53 SE 18 16.09 Clear CLR 13 9     77%     1014.2 1014.2      
May 12 00:53 E 5 16.09 Clear CLR 17 9     60%     1009.5 1009.2      
Jun 11 20:53 WSW 21 16.09 Clear   14 7     62%     1015.2 1015.2      
Jun 10 18:53   16.09 Partly Cloudy FEW025 SCT037 SCT065 19 7     47%     1013.6 1013.5      
Jun 10 12:53   16.09 Partly Cloudy FEW015 SCT032 SCT050 21 8     45%     1015.2 1014.9      
Notice The following observation data may not be complete
Jun 10 03:34   16.09 Mostly Cloudy BKN023          %              
Jun 09 00:53 NW 8 16.09 Clear   18 16     90%     1014.6 1014.6      
Jun 08 16:53 ESE 13 16.09 Cloudy FEW009 BKN038 OVC075 21 14     66%     1015.6 1015.3     0
Jun 07 14:53   16.09 Mostly Cloudy FEW050 SCT090 BKN130 22 12     53%   21 1013.2 1013      
Jun 07 06:53 Calm 11.27 Mostly Cloudy FEW001 SCT007 BKN010 14 11     81%     1013.6 1013.3      
Jun 06 04:53 NW 8 14.48 Clear CLR 13 11     89%     1013.6 1013.3      
Jun 06 03:53 NNW 9 14.48 Clear CLR 13 11     87%     1013.2 1013.1      
Jun 05 20:53 W 15 16.09 Partly Cloudy FEW002 FEW065 SCT110 18 12     65%     1012.2 1011.9      
Jun 05 12:53 NW 17 16.09 Mostly Clear FEW035 FEW090 26 11     38%   26 1012.2 1012